Home   Weather   Oshawa   Past weeks
Flag for Canada

Past Weather in Oshawa, Ontario, Canada — Yesterday and Last 2 Weeks

Now
61 °F

More clouds than sun.


Feels Like: 61 °F
Forecast: 68 / 54 °F
Wind: 5 mph from East

Location: Oshawa

Current Time: Jun 17, 2019 at 8:54:15 am

Latest Report: Jun 17, 2019 at 8:00 am


Visibility: 9 mi

Pressure: 30.01 "Hg

Humidity: 77%

Dew Point: 54 °F

Location of OshawaLocation

Past Weather in Oshawa — Graph

°F

Oshawa Temperature Yesterday

Maximum temperature yesterday: 68 °F (at 12:00 pm)
Minimum temperature yesterday: 50 °F (at 4:00 am)
Average temperature yesterday: 60 °F

High & Low Weather Summary for the Past Weeks

 TemperatureHumidityPressure
High79 °F (Jun 7, 3:00 pm)100% (Jun 4, 5:00 am)30.23 "Hg (Jun 4, 5:00 am)
Low36 °F (Jun 4, 5:00 am)23% (Jun 8, 1:00 pm)29.59 "Hg (Jun 13, 5:58 pm)
Average60 °F72%29.91 "Hg
* Reported Jun 2 7:00 am — Jun 17 7:00 am, Oshawa. Weather by CustomWeather, © 2019

Note: Actual official high and low records may vary slightly from our data, if they occured in-between our weather recording intervals... More about our weather records

Advertising

Oshawa Weather History for the Previous 24 Hours

Scroll right to see more
 ConditionsComfort  
Time TempWeatherWind HumidityBarometerVisibility
7:00 am
Mon, Jun 17
59 °FOvercast.2 mph77%29.99 "Hg9 mi
6:00 am57 °FOvercast.2 mph88%29.98 "Hg9 mi
5:00 am57 °FOvercast.No wind88%29.97 "Hg9 mi
4:00 am57 °FOvercast.5 mph88%29.96 "Hg9 mi
3:00 am59 °FOvercast.7 mph82%29.96 "Hg9 mi
2:00 am55 °FOvercast.No wind88%29.95 "Hg9 mi
1:00 am52 °FMostly cloudy.6 mph94%29.96 "Hg9 mi
12:00 am52 °FPassing clouds.3 mph94%29.95 "Hg9 mi
11:00 pm
Sun, Jun 16
54 °FClear.No wind88%29.94 "Hg9 mi
10:00 pm55 °FClear.No wind77%29.93 "Hg9 mi
9:00 pm61 °FClear.3 mph63%29.90 "Hg9 mi
8:00 pm64 °FSunny.5 mph60%29.88 "Hg9 mi
7:00 pm68 °FSunny.7 mph56%29.90 "Hg9 mi
6:00 pm66 °FSunny.3 mph56%29.89 "Hg9 mi
5:00 pm64 °FPartly sunny.5 mph60%29.90 "Hg9 mi
4:00 pm63 °FOvercast.6 mph64%29.90 "Hg9 mi
3:00 pm63 °FPartly sunny.8 mph59%29.89 "Hg9 mi
2:00 pm64 °FPartly sunny.9 mph60%29.87 "Hg9 mi
1:00 pm68 °FPartly sunny.6 mph53%29.88 "Hg9 mi
12:00 pm68 °FScattered clouds.6 mph49%29.87 "Hg9 mi
11:00 am66 °FScattered clouds.6 mph56%29.88 "Hg9 mi
10:00 am66 °FSunny.9 mph52%29.87 "Hg9 mi
9:00 am63 °FSunny.8 mph64%29.87 "Hg9 mi
8:00 am59 °FSunny.8 mph72%29.86 "Hg9 mi
Weather by CustomWeather, © 2019

See weather overview